Wetterdaten: Sonntag, 28.05.2017
Datum Zeit Temp. A. Temp. A. min Temp. A. max Feuchte A. Bod.Feucht 4 Luftdruck Regen Wind Richtung Richtung Sonnenschein ET Solar Taupunkt Windchill Windben Empfang
28.05.2017 00:00 20,8 C 20,8 C 21,2 C 55 % 0 cb 1018,4 hPa 0,0 l/m 1,6 km/h (1 Bft) N-NO 22 0 min 0,051 mm 0 W/m 11,4 C 20,8 C 4,8 km/h (1 Bft) 100,00 %
28.05.2017 00:10 20,5 C 20,5 C 20,8 C 56 % 0 cb 1018,5 hPa 0,0 l/m 0,0 km/h (0 Bft) N-NO 22 0 min 0,000 mm 0 W/m 11,4 C 20,5 C 3,2 km/h (1 Bft) 100,00 %
28.05.2017 00:20 20,0 C 20,0 C 20,4 C 58 % 0 cb 1018,5 hPa 0,0 l/m 1,6 km/h (1 Bft) N-NO 22 0 min 0,000 mm 0 W/m 11,5 C 20,0 C 4,8 km/h (1 Bft) 100,00 %
28.05.2017 00:30 19,7 C 19,7 C 20,0 C 59 % 0 cb 1018,5 hPa 0,0 l/m 1,6 km/h (1 Bft) N-NO 22 0 min 0,000 mm 0 W/m 11,5 C 19,7 C 6,4 km/h (2 Bft) 99,12 %
28.05.2017 00:40 19,6 C 19,6 C 19,7 C 59 % 0 cb 1018,6 hPa 0,0 l/m 1,6 km/h (1 Bft) N-NO 22 0 min 0,000 mm 0 W/m 11,4 C 19,6 C 3,2 km/h (1 Bft) 100,00 %
28.05.2017 00:50 19,3 C 19,3 C 19,6 C 61 % 0 cb 1018,7 hPa 0,0 l/m 0,0 km/h (0 Bft) N 0 0 min 0,000 mm 0 W/m 11,6 C 19,3 C 0,0 km/h (0 Bft) 100,00 %
28.05.2017 01:00 18,9 C 18,9 C 19,3 C 64 % 0 cb 1018,8 hPa 0,0 l/m 0,0 km/h (0 Bft) N 0 0 min 0,051 mm 0 W/m 11,9 C 18,9 C 0,0 km/h (0 Bft) 100,00 %
28.05.2017 01:10 18,6 C 18,6 C 18,9 C 65 % 0 cb 1018,9 hPa 0,0 l/m 0,0 km/h (0 Bft) N 0 0 min 0,000 mm 0 W/m 11,9 C 18,6 C 0,0 km/h (0 Bft) 100,00 %
28.05.2017 01:20 18,4 C 18,3 C 18,6 C 65 % 0 cb 1018,9 hPa 0,0 l/m 0,0 km/h (0 Bft) N-NO 22 0 min 0,000 mm 0 W/m 11,7 C 18,4 C 3,2 km/h (1 Bft) 100,00 %
28.05.2017 01:30 18,4 C 18,4 C 18,4 C 65 % 0 cb 1018,9 hPa 0,0 l/m 1,6 km/h (1 Bft) N-NO 22 0 min 0,000 mm 0 W/m 11,7 C 18,4 C 3,2 km/h (1 Bft) 100,00 %
28.05.2017 01:40 18,2 C 18,2 C 18,4 C 66 % 0 cb 1018,9 hPa 0,0 l/m 1,6 km/h (1 Bft) N-NO 22 0 min 0,000 mm 0 W/m 11,7 C 18,2 C 3,2 km/h (1 Bft) 100,00 %
28.05.2017 01:50 18,0 C 18,0 C 18,2 C 66 % 0 cb 1018,8 hPa 0,0 l/m 0,0 km/h (0 Bft) N-NO 22 0 min 0,000 mm 0 W/m 11,6 C 18,0 C 3,2 km/h (1 Bft) 100,00 %
28.05.2017 02:00 18,3 C 18,0 C 18,3 C 65 % 0 cb 1018,7 hPa 0,0 l/m 3,2 km/h (1 Bft) N-NO 22 0 min 0,025 mm 0 W/m 11,6 C 18,3 C 6,4 km/h (2 Bft) 100,00 %
28.05.2017 02:10 18,6 C 18,3 C 18,6 C 64 % 0 cb 1018,7 hPa 0,0 l/m 4,8 km/h (1 Bft) N-NO 22 0 min 0,000 mm 0 W/m 11,7 C 18,6 C 9,7 km/h (2 Bft) 100,00 %
28.05.2017 02:20 18,8 C 18,6 C 18,8 C 63 % 0 cb 1018,7 hPa 0,0 l/m 4,8 km/h (1 Bft) N-NO 22 0 min 0,000 mm 0 W/m 11,6 C 18,8 C 11,3 km/h (2 Bft) 100,00 %
28.05.2017 02:30 18,7 C 18,7 C 18,8 C 63 % 0 cb 1018,7 hPa 0,0 l/m 3,2 km/h (1 Bft) N-NO 22 0 min 0,000 mm 0 W/m 11,5 C 18,7 C 6,4 km/h (2 Bft) 99,56 %
28.05.2017 02:40 18,8 C 18,7 C 18,8 C 63 % 0 cb 1018,7 hPa 0,0 l/m 3,2 km/h (1 Bft) N-NO 22 0 min 0,000 mm 0 W/m 11,6 C 18,8 C 8,0 km/h (2 Bft) 100,00 %
28.05.2017 02:50 18,6 C 18,6 C 18,8 C 64 % 0 cb 1018,7 hPa 0,0 l/m 0,0 km/h (0 Bft) N-NO 22 0 min 0,000 mm 0 W/m 11,7 C 18,6 C 4,8 km/h (1 Bft) 100,00 %
28.05.2017 03:00 18,3 C 18,3 C 18,6 C 65 % 0 cb 1018,6 hPa 0,0 l/m 0,0 km/h (0 Bft) N-NO 22 0 min 0,051 mm 0 W/m 11,6 C 18,3 C 3,2 km/h (1 Bft) 100,00 %
28.05.2017 03:10 18,1 C 18,1 C 18,3 C 67 % 0 cb 1018,7 hPa 0,0 l/m 0,0 km/h (0 Bft) N-NO 22 0 min 0,000 mm 0 W/m 11,9 C 18,1 C 6,4 km/h (2 Bft) 100,00 %
28.05.2017 03:20 18,1 C 17,9 C 18,1 C 66 % 0 cb 1018,7 hPa 0,0 l/m 3,2 km/h (1 Bft) N-NO 22 0 min 0,000 mm 0 W/m 11,6 C 18,1 C 8,0 km/h (2 Bft) 100,00 %
28.05.2017 03:30 18,4 C 18,1 C 18,4 C 65 % 0 cb 1018,6 hPa 0,0 l/m 3,2 km/h (1 Bft) N-NO 22 0 min 0,000 mm 0 W/m 11,7 C 18,4 C 6,4 km/h (2 Bft) 100,00 %
28.05.2017 03:40 18,7 C 18,4 C 18,7 C 64 % 0 cb 1018,6 hPa 0,0 l/m 4,8 km/h (1 Bft) N-NO 22 0 min 0,000 mm 0 W/m 11,7 C 18,7 C 9,7 km/h (2 Bft) 99,56 %
28.05.2017 03:50 18,7 C 18,7 C 18,8 C 64 % 0 cb 1018,5 hPa 0,0 l/m 3,2 km/h (1 Bft) N-NO 22 0 min 0,000 mm 0 W/m 11,7 C 18,7 C 9,7 km/h (2 Bft) 100,00 %
28.05.2017 04:00 18,5 C 18,5 C 18,7 C 64 % 0 cb 1018,4 hPa 0,0 l/m 3,2 km/h (1 Bft) N-NO 22 0 min 0,051 mm 0 W/m 11,6 C 18,5 C 8,0 km/h (2 Bft) 100,00 %
28.05.2017 04:10 18,4 C 18,4 C 18,5 C 65 % 0 cb 1018,4 hPa 0,0 l/m 3,2 km/h (1 Bft) N-NO 22 0 min 0,000 mm 0 W/m 11,7 C 18,4 C 8,0 km/h (2 Bft) 100,00 %
28.05.2017 04:20 18,3 C 18,3 C 18,4 C 65 % 0 cb 1018,4 hPa 0,0 l/m 3,2 km/h (1 Bft) N-NO 22 0 min 0,000 mm 0 W/m 11,6 C 18,3 C 8,0 km/h (2 Bft) 99,56 %
28.05.2017 04:30 17,7 C 17,7 C 18,3 C 69 % 0 cb 1018,4 hPa 0,0 l/m 0,0 km/h (0 Bft) N-NO 22 0 min 0,000 mm 0 W/m 11,9 C 17,7 C 4,8 km/h (1 Bft) 100,00 %
28.05.2017 04:40 17,1 C 17,1 C 17,6 C 71 % 0 cb 1018,4 hPa 0,0 l/m 0,0 km/h (0 Bft) N 0 0 min 0,000 mm 0 W/m 11,8 C 17,1 C 0,0 km/h (0 Bft) 100,00 %
28.05.2017 04:50 16,6 C 16,6 C 17,1 C 72 % 0 cb 1018,5 hPa 0,0 l/m 0,0 km/h (0 Bft) N 0 0 min 0,000 mm 0 W/m 11,5 C 16,6 C 0,0 km/h (0 Bft) 100,00 %
28.05.2017 05:00 16,2 C 16,2 C 16,6 C 74 % 0 cb 1018,4 hPa 0,0 l/m 0,0 km/h (0 Bft) N 0 0 min 0,025 mm 0 W/m 11,6 C 16,2 C 0,0 km/h (0 Bft) 100,00 %
28.05.2017 05:10 15,9 C 15,9 C 16,2 C 75 % 0 cb 1018,3 hPa 0,0 l/m 0,0 km/h (0 Bft) N 0 0 min 0,000 mm 0 W/m 11,5 C 15,9 C 0,0 km/h (0 Bft) 100,00 %
28.05.2017 05:20 15,6 C 15,6 C 15,9 C 76 % 0 cb 1018,3 hPa 0,0 l/m 0,0 km/h (0 Bft) N 0 0 min 0,000 mm 0 W/m 11,4 C 15,6 C 0,0 km/h (0 Bft) 100,00 %
28.05.2017 05:30 15,3 C 15,3 C 15,6 C 77 % 0 cb 1018,3 hPa 0,0 l/m 0,0 km/h (0 Bft) N 0 0 min 0,000 mm 0 W/m 11,3 C 15,3 C 0,0 km/h (0 Bft) 99,56 %
28.05.2017 05:40 15,1 C 15,1 C 15,3 C 79 % 0 cb 1018,4 hPa 0,0 l/m 0,0 km/h (0 Bft) N 0 0 min 0,000 mm 5 W/m 11,5 C 15,1 C 0,0 km/h (0 Bft) 98,68 %
28.05.2017 05:50 14,9 C 14,9 C 15,1 C 79 % 0 cb 1018,4 hPa 0,0 l/m 0,0 km/h (0 Bft) N 0 0 min 0,000 mm 11 W/m 11,3 C 14,9 C 0,0 km/h (0 Bft) 100,00 %
28.05.2017 06:00 14,9 C 14,9 C 14,9 C 80 % 0 cb 1018,3 hPa 0,0 l/m 0,0 km/h (0 Bft) N 0 0 min 0,000 mm 16 W/m 11,5 C 14,9 C 0,0 km/h (0 Bft) 100,00 %
28.05.2017 06:10 14,8 C 14,8 C 14,9 C 80 % 0 cb 1018,4 hPa 0,0 l/m 0,0 km/h (0 Bft) N 0 0 min 0,000 mm 21 W/m 11,4 C 14,8 C 0,0 km/h (0 Bft) 100,00 %
28.05.2017 06:20 14,8 C 14,8 C 14,8 C 80 % 0 cb 1018,4 hPa 0,0 l/m 0,0 km/h (0 Bft) N 0 0 min 0,000 mm 25 W/m 11,4 C 14,8 C 0,0 km/h (0 Bft) 98,25 %
28.05.2017 06:30 14,9 C 14,8 C 14,9 C 81 % 0 cb 1018,4 hPa 0,0 l/m 0,0 km/h (0 Bft) N 0 0 min 0,000 mm 32 W/m 11,7 C 14,9 C 0,0 km/h (0 Bft) 100,00 %
28.05.2017 06:40 15,3 C 14,9 C 15,3 C 80 % 0 cb 1018,4 hPa 0,0 l/m 0,0 km/h (0 Bft) N 0 0 min 0,000 mm 37 W/m 11,9 C 15,3 C 0,0 km/h (0 Bft) 100,00 %
28.05.2017 06:50 15,6 C 15,3 C 15,6 C 80 % 0 cb 1018,4 hPa 0,0 l/m 0,0 km/h (0 Bft) N 0 0 min 0,000 mm 100 W/m 12,2 C 15,6 C 0,0 km/h (0 Bft) 100,00 %
28.05.2017 07:00 16,1 C 15,6 C 16,1 C 78 % 0 cb 1018,5 hPa 0,0 l/m 0,0 km/h (0 Bft) N 0 0 min 0,025 mm 123 W/m 12,3 C 16,1 C 0,0 km/h (0 Bft) 99,12 %
28.05.2017 07:10 16,7 C 16,1 C 16,7 C 78 % 0 cb 1018,6 hPa 0,0 l/m 0,0 km/h (0 Bft) N 0 0 min 0,000 mm 151 W/m 12,8 C 16,7 C 0,0 km/h (0 Bft) 99,12 %
28.05.2017 07:20 17,8 C 16,7 C 17,8 C 74 % 0 cb 1018,5 hPa 0,0 l/m 0,0 km/h (0 Bft) N 0 10 min 0,000 mm 178 W/m 13,1 C 17,8 C 0,0 km/h (0 Bft) 100,00 %
28.05.2017 07:30 18,6 C 17,8 C 18,6 C 73 % 0 cb 1018,6 hPa 0,0 l/m 0,0 km/h (0 Bft) N 0 10 min 0,000 mm 199 W/m 13,7 C 18,6 C 0,0 km/h (0 Bft) 100,00 %
28.05.2017 07:40 19,2 C 18,6 C 19,2 C 70 % 0 cb 1018,6 hPa 0,0 l/m 0,0 km/h (0 Bft) N 0 10 min 0,000 mm 216 W/m 13,6 C 19,2 C 0,0 km/h (0 Bft) 100,00 %
28.05.2017 07:50 19,8 C 19,2 C 19,8 C 70 % 0 cb 1018,7 hPa 0,0 l/m 0,0 km/h (0 Bft) N 0 10 min 0,000 mm 257 W/m 14,2 C 19,8 C 0,0 km/h (0 Bft) 100,00 %
28.05.2017 08:00 20,4 C 19,9 C 20,4 C 67 % 0 cb 1018,7 hPa 0,0 l/m 0,0 km/h (0 Bft) N 0 10 min 0,127 mm 287 W/m 14,1 C 20,4 C 0,0 km/h (0 Bft) 100,00 %
28.05.2017 08:10 20,9 C 20,4 C 20,9 C 66 % 0 cb 1018,7 hPa 0,0 l/m 0,0 km/h (0 Bft) N 0 10 min 0,000 mm 318 W/m 14,3 C 20,9 C 0,0 km/h (0 Bft) 100,00 %
28.05.2017 08:20 21,6 C 21,0 C 21,6 C 65 % 0 cb 1018,9 hPa 0,0 l/m 0,0 km/h (0 Bft) N 0 10 min 0,000 mm 329 W/m 14,7 C 21,6 C 0,0 km/h (0 Bft) 100,00 %
28.05.2017 08:30 22,2 C 21,6 C 22,2 C 64 % 0 cb 1018,9 hPa 0,0 l/m 0,0 km/h (0 Bft) N 0 10 min 0,000 mm 373 W/m 15,1 C 22,2 C 0,0 km/h (0 Bft) 100,00 %
28.05.2017 08:40 22,4 C 22,2 C 22,4 C 65 % 0 cb 1018,9 hPa 0,0 l/m 0,0 km/h (0 Bft) N 0 10 min 0,000 mm 408 W/m 15,5 C 22,4 C 0,0 km/h (0 Bft) 100,00 %
28.05.2017 08:50 22,9 C 22,5 C 22,9 C 63 % 0 cb 1018,9 hPa 0,0 l/m 0,0 km/h (0 Bft) N 0 10 min 0,000 mm 464 W/m 15,5 C 22,9 C 0,0 km/h (0 Bft) 100,00 %
28.05.2017 09:00 23,7 C 23,0 C 23,7 C 59 % 0 cb 1018,9 hPa 0,0 l/m 0,0 km/h (0 Bft) N-NO 22 10 min 0,229 mm 471 W/m 15,2 C 23,7 C 3,2 km/h (1 Bft) 100,00 %
28.05.2017 09:10 24,3 C 23,7 C 24,3 C 59 % 0 cb 1018,8 hPa 0,0 l/m 1,6 km/h (1 Bft) N-NO 22 10 min 0,000 mm 501 W/m 15,8 C 24,3 C 3,2 km/h (1 Bft) 100,00 %
28.05.2017 09:20 24,9 C 24,3 C 24,9 C 53 % 0 cb 1018,9 hPa 0,0 l/m 1,6 km/h (1 Bft) N-NO 22 10 min 0,000 mm 492 W/m 14,6 C 24,9 C 4,8 km/h (1 Bft) 100,00 %
28.05.2017 09:30 24,9 C 24,9 C 25,0 C 53 % 0 cb 1018,8 hPa 0,0 l/m 1,6 km/h (1 Bft) NO 45 10 min 0,000 mm 404 W/m 14,6 C 24,9 C 6,4 km/h (2 Bft) 100,00 %
28.05.2017 09:40 24,8 C 24,8 C 24,9 C 54 % 0 cb 1018,8 hPa 0,0 l/m 3,2 km/h (1 Bft) O 90 10 min 0,000 mm 471 W/m 14,8 C 24,8 C 6,4 km/h (2 Bft) 100,00 %
28.05.2017 09:50 25,1 C 24,8 C 25,1 C 55 % 0 cb 1018,7 hPa 0,0 l/m 1,6 km/h (1 Bft) O 90 10 min 0,000 mm 568 W/m 15,4 C 25,1 C 6,4 km/h (2 Bft) 98,25 %
28.05.2017 10:00 25,5 C 25,1 C 25,5 C 57 % 0 cb 1018,7 hPa 0,0 l/m 1,6 km/h (1 Bft) O 90 10 min 0,305 mm 570 W/m 16,3 C 25,5 C 4,8 km/h (1 Bft) 100,00 %
28.05.2017 10:10 25,8 C 25,5 C 25,8 C 55 % 0 cb 1018,7 hPa 0,0 l/m 1,6 km/h (1 Bft) O 90 10 min 0,000 mm 568 W/m 16,1 C 25,8 C 4,8 km/h (1 Bft) 100,00 %
28.05.2017 10:20 25,9 C 25,8 C 25,9 C 54 % 0 cb 1018,6 hPa 0,0 l/m 1,6 km/h (1 Bft) O 90 10 min 0,000 mm 515 W/m 15,9 C 25,9 C 6,4 km/h (2 Bft) 100,00 %
28.05.2017 10:30 25,9 C 25,9 C 25,9 C 56 % 0 cb 1018,7 hPa 0,0 l/m 1,6 km/h (1 Bft) O 90 10 min 0,000 mm 526 W/m 16,4 C 25,9 C 4,8 km/h (1 Bft) 100,00 %
28.05.2017 10:40 26,0 C 25,9 C 26,0 C 56 % 0 cb 1018,7 hPa 0,0 l/m 1,6 km/h (1 Bft) O 90 10 min 0,000 mm 520 W/m 16,5 C 26,0 C 6,4 km/h (2 Bft) 100,00 %
28.05.2017 10:50 26,1 C 26,0 C 26,1 C 56 % 0 cb 1018,8 hPa 0,0 l/m 1,6 km/h (1 Bft) O 90 10 min 0,000 mm 570 W/m 16,6 C 26,1 C 6,4 km/h (2 Bft) 100,00 %
28.05.2017 11:00 26,2 C 26,1 C 26,2 C 58 % 0 cb 1018,8 hPa 0,0 l/m 3,2 km/h (1 Bft) O 90 10 min 0,356 mm 671 W/m 17,3 C 26,2 C 6,4 km/h (2 Bft) 100,00 %
28.05.2017 11:10 26,4 C 26,1 C 26,4 C 58 % 0 cb 1018,7 hPa 0,0 l/m 1,6 km/h (1 Bft) O 90 10 min 0,000 mm 659 W/m 17,5 C 26,4 C 6,4 km/h (2 Bft) 100,00 %
28.05.2017 11:20 26,7 C 26,5 C 26,7 C 57 % 0 cb 1018,7 hPa 0,0 l/m 1,6 km/h (1 Bft) O 90 10 min 0,000 mm 510 W/m 17,5 C 26,7 C 6,4 km/h (2 Bft) 100,00 %
28.05.2017 11:30 26,8 C 26,7 C 26,8 C 57 % 0 cb 1018,6 hPa 0,0 l/m 1,6 km/h (1 Bft) O 90 10 min 0,000 mm 485 W/m 17,6 C 26,8 C 4,8 km/h (1 Bft) 99,56 %
28.05.2017 11:40 26,9 C 26,8 C 26,9 C 56 % 0 cb 1018,7 hPa 0,0 l/m 1,6 km/h (1 Bft) O 90 10 min 0,000 mm 568 W/m 17,4 C 26,9 C 6,4 km/h (2 Bft) 100,00 %
28.05.2017 11:50 27,2 C 26,9 C 27,2 C 55 % 0 cb 1018,7 hPa 0,0 l/m 3,2 km/h (1 Bft) O 90 10 min 0,000 mm 715 W/m 17,4 C 27,2 C 6,4 km/h (2 Bft) 100,00 %
28.05.2017 12:00 27,5 C 27,2 C 27,5 C 54 % 0 cb 1018,7 hPa 0,0 l/m 1,6 km/h (1 Bft) O 90 10 min 0,381 mm 744 W/m 17,3 C 27,5 C 6,4 km/h (2 Bft) 100,00 %
28.05.2017 12:10 27,8 C 27,5 C 27,8 C 54 % 0 cb 1018,7 hPa 0,0 l/m 3,2 km/h (1 Bft) O 90 10 min 0,000 mm 687 W/m 17,6 C 27,8 C 6,4 km/h (2 Bft) 100,00 %
28.05.2017 12:20 28,0 C 27,8 C 28,0 C 54 % 0 cb 1018,6 hPa 0,0 l/m 1,6 km/h (1 Bft) O 90 10 min 0,000 mm 700 W/m 17,8 C 28,0 C 4,8 km/h (1 Bft) 100,00 %
28.05.2017 12:30 28,4 C 28,0 C 28,4 C 51 % 0 cb 1018,6 hPa 0,0 l/m 3,2 km/h (1 Bft) O 90 10 min 0,000 mm 789 W/m 17,3 C 28,4 C 9,7 km/h (2 Bft) 100,00 %
28.05.2017 12:40 28,5 C 28,4 C 28,5 C 53 % 0 cb 1018,6 hPa 0,0 l/m 3,2 km/h (1 Bft) SO 135 10 min 0,000 mm 886 W/m 18,0 C 28,5 C 8,0 km/h (2 Bft) 99,56 %
28.05.2017 12:50 28,9 C 28,5 C 28,9 C 54 % 0 cb 1018,6 hPa 0,0 l/m 3,2 km/h (1 Bft) SO 135 10 min 0,000 mm 860 W/m 18,6 C 28,9 C 8,0 km/h (2 Bft) 100,00 %
28.05.2017 13:00 29,3 C 28,9 C 29,3 C 53 % 0 cb 1018,6 hPa 0,0 l/m 3,2 km/h (1 Bft) S 180 10 min 0,508 mm 800 W/m 18,7 C 29,3 C 11,3 km/h (2 Bft) 100,00 %
28.05.2017 13:10 29,2 C 29,2 C 29,4 C 54 % 0 cb 1018,4 hPa 0,0 l/m 4,8 km/h (1 Bft) S-SO 157 10 min 0,000 mm 729 W/m 18,9 C 29,2 C 12,9 km/h (3 Bft) 100,00 %
28.05.2017 13:20 29,0 C 29,0 C 29,2 C 52 % 0 cb 1018,4 hPa 0,0 l/m 3,2 km/h (1 Bft) S 180 10 min 0,000 mm 664 W/m 18,1 C 29,0 C 12,9 km/h (3 Bft) 100,00 %
28.05.2017 13:30 28,6 C 28,6 C 29,1 C 53 % 0 cb 1018,3 hPa 0,0 l/m 4,8 km/h (1 Bft) S 180 10 min 0,000 mm 846 W/m 18,1 C 28,6 C 12,9 km/h (3 Bft) 100,00 %
28.05.2017 13:40 28,9 C 28,6 C 28,9 C 56 % 0 cb 1018,2 hPa 0,0 l/m 4,8 km/h (1 Bft) S-SW 202 10 min 0,000 mm 909 W/m 19,2 C 28,9 C 16,1 km/h (3 Bft) 100,00 %
28.05.2017 13:50 29,2 C 28,9 C 29,2 C 53 % 0 cb 1018,1 hPa 0,0 l/m 3,2 km/h (1 Bft) S-SW 202 10 min 0,000 mm 891 W/m 18,6 C 29,2 C 12,9 km/h (3 Bft) 99,56 %
28.05.2017 14:00 29,7 C 29,2 C 29,7 C 51 % 0 cb 1018,0 hPa 0,0 l/m 3,2 km/h (1 Bft) S 180 10 min 0,508 mm 888 W/m 18,5 C 29,7 C 11,3 km/h (2 Bft) 100,00 %
28.05.2017 14:10 30,2 C 29,7 C 30,2 C 48 % 0 cb 1018,0 hPa 0,0 l/m 3,2 km/h (1 Bft) S-SW 202 10 min 0,000 mm 875 W/m 17,9 C 30,2 C 9,7 km/h (2 Bft) 100,00 %
28.05.2017 14:20 30,4 C 30,2 C 30,4 C 48 % 0 cb 1018,0 hPa 0,0 l/m 3,2 km/h (1 Bft) SW 225 10 min 0,000 mm 851 W/m 18,1 C 30,4 C 9,7 km/h (2 Bft) 100,00 %
28.05.2017 14:30 30,1 C 30,1 C 30,4 C 47 % 0 cb 1017,8 hPa 0,0 l/m 1,6 km/h (1 Bft) S 180 10 min 0,000 mm 824 W/m 17,5 C 30,1 C 8,0 km/h (2 Bft) 100,00 %
28.05.2017 14:40 30,0 C 29,9 C 30,1 C 49 % 0 cb 1017,8 hPa 0,0 l/m 1,6 km/h (1 Bft) S 180 10 min 0,000 mm 824 W/m 18,1 C 30,0 C 8,0 km/h (2 Bft) 100,00 %
28.05.2017 14:50 30,4 C 30,1 C 30,4 C 46 % 0 cb 1017,6 hPa 0,0 l/m 3,2 km/h (1 Bft) S 180 10 min 0,000 mm 810 W/m 17,5 C 30,4 C 9,7 km/h (2 Bft) 100,00 %
28.05.2017 15:00 30,4 C 30,4 C 30,4 C 47 % 0 cb 1017,5 hPa 0,0 l/m 3,2 km/h (1 Bft) SW 225 10 min 0,584 mm 837 W/m 17,8 C 30,4 C 9,7 km/h (2 Bft) 100,00 %
28.05.2017 15:10 30,6 C 30,4 C 30,6 C 48 % 0 cb 1017,4 hPa 0,0 l/m 1,6 km/h (1 Bft) SO 135 10 min 0,000 mm 812 W/m 18,3 C 30,6 C 8,0 km/h (2 Bft) 100,00 %
28.05.2017 15:20 30,8 C 30,6 C 30,8 C 48 % 0 cb 1017,3 hPa 0,0 l/m 3,2 km/h (1 Bft) S-SO 157 10 min 0,000 mm 798 W/m 18,5 C 30,8 C 8,0 km/h (2 Bft) 100,00 %
28.05.2017 15:30 31,0 C 30,8 C 31,2 C 46 % 0 cb 1017,3 hPa 0,0 l/m 4,8 km/h (1 Bft) S 180 10 min 0,000 mm 773 W/m 18,0 C 31,0 C 14,5 km/h (3 Bft) 100,00 %
28.05.2017 15:40 31,3 C 31,0 C 31,3 C 48 % 0 cb 1017,2 hPa 0,0 l/m 4,8 km/h (1 Bft) SW 225 10 min 0,000 mm 765 W/m 18,9 C 31,3 C 14,5 km/h (3 Bft) 98,68 %
28.05.2017 15:50 31,1 C 31,1 C 31,3 C 49 % 0 cb 1017,2 hPa 0,0 l/m 4,8 km/h (1 Bft) S-SO 157 10 min 0,000 mm 759 W/m 19,1 C 31,1 C 14,5 km/h (3 Bft) 100,00 %
28.05.2017 16:00 30,4 C 30,4 C 31,1 C 49 % 0 cb 1017,1 hPa 0,0 l/m 3,2 km/h (1 Bft) S-SO 157 10 min 0,432 mm 708 W/m 18,5 C 30,4 C 8,0 km/h (2 Bft) 100,00 %
28.05.2017 16:10 30,8 C 30,4 C 30,8 C 46 % 0 cb 1017,0 hPa 0,0 l/m 3,2 km/h (1 Bft) S-SO 157 10 min 0,000 mm 749 W/m 17,8 C 30,8 C 12,9 km/h (3 Bft) 100,00 %
28.05.2017 16:20 31,6 C 30,8 C 31,6 C 45 % 0 cb 1016,9 hPa 0,0 l/m 3,2 km/h (1 Bft) W 270 10 min 0,000 mm 710 W/m 18,2 C 31,6 C 11,3 km/h (2 Bft) 100,00 %
28.05.2017 16:30 31,8 C 31,6 C 31,9 C 42 % 0 cb 1016,8 hPa 0,0 l/m 4,8 km/h (1 Bft) S 180 10 min 0,000 mm 703 W/m 17,3 C 31,8 C 11,3 km/h (2 Bft) 100,00 %
28.05.2017 16:40 31,7 C 31,6 C 31,8 C 38 % 0 cb 1016,8 hPa 0,0 l/m 4,8 km/h (1 Bft) S 180 10 min 0,000 mm 802 W/m 15,6 C 31,7 C 14,5 km/h (3 Bft) 100,00 %
28.05.2017 16:50 32,2 C 31,7 C 32,2 C 37 % 0 cb 1016,8 hPa 0,0 l/m 3,2 km/h (1 Bft) W-SW 247 10 min 0,000 mm 810 W/m 15,6 C 32,2 C 9,7 km/h (2 Bft) 100,00 %
28.05.2017 17:00 31,9 C 31,9 C 32,1 C 41 % 0 cb 1016,7 hPa 0,0 l/m 3,2 km/h (1 Bft) W-SW 247 10 min 0,457 mm 527 W/m 17,0 C 31,9 C 11,3 km/h (2 Bft) 100,00 %
28.05.2017 17:10 31,8 C 31,8 C 31,9 C 43 % 0 cb 1016,7 hPa 0,0 l/m 3,2 km/h (1 Bft) SW 225 10 min 0,000 mm 624 W/m 17,6 C 31,8 C 14,5 km/h (3 Bft) 99,12 %
28.05.2017 17:20 31,7 C 31,7 C 31,8 C 40 % 0 cb 1016,7 hPa 0,0 l/m 3,2 km/h (1 Bft) S-SW 202 10 min 0,000 mm 584 W/m 16,4 C 31,7 C 8,0 km/h (2 Bft) 100,00 %
28.05.2017 17:30 31,9 C 31,7 C 31,9 C 43 % 0 cb 1016,5 hPa 0,0 l/m 3,2 km/h (1 Bft) S 180 10 min 0,000 mm 559 W/m 17,7 C 31,9 C 12,9 km/h (3 Bft) 100,00 %
28.05.2017 17:40 32,1 C 31,9 C 32,1 C 40 % 0 cb 1016,5 hPa 0,0 l/m 4,8 km/h (1 Bft) SW 225 10 min 0,000 mm 504 W/m 16,8 C 32,1 C 11,3 km/h (2 Bft) 100,00 %
28.05.2017 17:50 31,9 C 31,9 C 32,1 C 39 % 0 cb 1016,4 hPa 0,0 l/m 3,2 km/h (1 Bft) SW 225 10 min 0,000 mm 483 W/m 16,2 C 31,9 C 9,7 km/h (2 Bft) 100,00 %
28.05.2017 18:00 31,7 C 31,6 C 31,9 C 43 % 0 cb 1016,2 hPa 0,0 l/m 3,2 km/h (1 Bft) S 180 10 min 0,381 mm 489 W/m 17,6 C 31,7 C 9,7 km/h (2 Bft) 100,00 %
28.05.2017 18:10 31,7 C 31,7 C 31,8 C 41 % 0 cb 1016,2 hPa 0,0 l/m 4,8 km/h (1 Bft) S 180 10 min 0,000 mm 503 W/m 16,8 C 31,7 C 14,5 km/h (3 Bft) 100,00 %
28.05.2017 18:20 31,3 C 31,3 C 31,7 C 42 % 0 cb 1016,4 hPa 0,0 l/m 6,4 km/h (2 Bft) S 180 10 min 0,000 mm 434 W/m 16,8 C 31,3 C 14,5 km/h (3 Bft) 100,00 %
28.05.2017 18:30 31,0 C 30,9 C 31,3 C 44 % 0 cb 1016,3 hPa 0,0 l/m 3,2 km/h (1 Bft) S 180 10 min 0,000 mm 417 W/m 17,3 C 31,0 C 11,3 km/h (2 Bft) 100,00 %
28.05.2017 18:40 30,9 C 30,9 C 31,0 C 44 % 0 cb 1016,2 hPa 0,0 l/m 4,8 km/h (1 Bft) S 180 10 min 0,000 mm 425 W/m 17,2 C 30,9 C 12,9 km/h (3 Bft) 99,56 %
28.05.2017 18:50 30,6 C 30,6 C 30,9 C 43 % 0 cb 1016,2 hPa 0,0 l/m 4,8 km/h (1 Bft) S-SW 202 10 min 0,000 mm 237 W/m 16,6 C 30,6 C 14,5 km/h (3 Bft) 100,00 %
28.05.2017 19:00 30,0 C 30,0 C 30,6 C 45 % 0 cb 1016,3 hPa 0,0 l/m 4,8 km/h (1 Bft) S 180 0 min 0,279 mm 151 W/m 16,7 C 30,0 C 11,3 km/h (2 Bft) 100,00 %
28.05.2017 19:10 29,7 C 29,7 C 30,0 C 46 % 0 cb 1016,2 hPa 0,0 l/m 1,6 km/h (1 Bft) S-SW 202 0 min 0,000 mm 127 W/m 16,8 C 29,7 C 6,4 km/h (2 Bft) 100,00 %
28.05.2017 19:20 29,4 C 29,4 C 29,7 C 48 % 0 cb 1016,2 hPa 0,0 l/m 0,0 km/h (0 Bft) S-SW 202 0 min 0,000 mm 104 W/m 17,2 C 29,4 C 4,8 km/h (1 Bft) 100,00 %
28.05.2017 19:30 29,3 C 29,3 C 29,4 C 47 % 0 cb 1016,2 hPa 0,0 l/m 0,0 km/h (0 Bft) S-SW 202 0 min 0,000 mm 88 W/m 16,8 C 29,3 C 4,8 km/h (1 Bft) 100,00 %
28.05.2017 19:40 29,0 C 29,0 C 29,3 C 49 % 0 cb 1016,2 hPa 0,0 l/m 1,6 km/h (1 Bft) S-SW 202 0 min 0,000 mm 76 W/m 17,2 C 29,0 C 6,4 km/h (2 Bft) 100,00 %
28.05.2017 19:50 28,7 C 28,7 C 29,0 C 50 % 0 cb 1016,3 hPa 0,0 l/m 0,0 km/h (0 Bft) S-SW 202 0 min 0,000 mm 67 W/m 17,2 C 28,7 C 3,2 km/h (1 Bft) 100,00 %
28.05.2017 20:00 28,3 C 28,3 C 28,7 C 48 % 0 cb 1016,4 hPa 0,0 l/m 0,0 km/h (0 Bft) S-SW 202 0 min 0,076 mm 62 W/m 16,2 C 28,3 C 3,2 km/h (1 Bft) 100,00 %
28.05.2017 20:10 28,1 C 28,1 C 28,3 C 49 % 0 cb 1016,5 hPa 0,0 l/m 0,0 km/h (0 Bft) N 0 0 min 0,000 mm 54 W/m 16,4 C 28,1 C 0,0 km/h (0 Bft) 96,49 %
28.05.2017 20:20 27,8 C 27,8 C 28,1 C 48 % 0 cb 1016,5 hPa 0,0 l/m 1,6 km/h (1 Bft) S-SW 202 0 min 0,000 mm 44 W/m 15,8 C 27,8 C 4,8 km/h (1 Bft) 100,00 %
28.05.2017 20:30 27,4 C 27,4 C 27,8 C 53 % 0 cb 1016,7 hPa 0,0 l/m 1,6 km/h (1 Bft) S 180 0 min 0,000 mm 37 W/m 17,0 C 27,4 C 4,8 km/h (1 Bft) 100,00 %
28.05.2017 20:40 26,3 C 26,3 C 27,4 C 55 % 0 cb 1016,6 hPa 0,0 l/m 6,4 km/h (2 Bft) N-NO 22 0 min 0,000 mm 37 W/m 16,5 C 26,3 C 16,1 km/h (3 Bft) 100,00 %
28.05.2017 20:50 25,6 C 25,6 C 26,3 C 56 % 0 cb 1016,7 hPa 0,0 l/m 6,4 km/h (2 Bft) NO 45 0 min 0,000 mm 35 W/m 16,2 C 25,6 C 20,9 km/h (4 Bft) 100,00 %
28.05.2017 21:00 24,9 C 24,9 C 25,6 C 59 % 0 cb 1016,8 hPa 0,0 l/m 6,4 km/h (2 Bft) N-NO 22 0 min 0,051 mm 28 W/m 16,3 C 24,9 C 20,9 km/h (4 Bft) 99,56 %
28.05.2017 21:10 24,3 C 24,3 C 24,9 C 61 % 0 cb 1016,8 hPa 0,0 l/m 6,4 km/h (2 Bft) N-NO 22 0 min 0,000 mm 23 W/m 16,3 C 24,3 C 14,5 km/h (3 Bft) 100,00 %
28.05.2017 21:20 23,8 C 23,8 C 24,3 C 63 % 0 cb 1017,1 hPa 0,0 l/m 4,8 km/h (1 Bft) N-NO 22 0 min 0,000 mm 16 W/m 16,3 C 23,8 C 12,9 km/h (3 Bft) 83,77 %
28.05.2017 21:30 23,7 C 23,7 C 23,8 C 64 % 0 cb 1017,1 hPa 0,0 l/m 4,8 km/h (1 Bft) N-NO 22 0 min 0,000 mm 9 W/m 16,5 C 23,7 C 9,7 km/h (2 Bft) 85,53 %
28.05.2017 21:40 23,6 C 23,6 C 23,7 C 64 % 0 cb 1017,1 hPa 0,0 l/m 3,2 km/h (1 Bft) N-NO 22 0 min 0,000 mm 0 W/m 16,4 C 23,6 C 11,3 km/h (2 Bft) 100,00 %
28.05.2017 21:50 23,3 C 23,3 C 23,6 C 65 % 0 cb 1017,2 hPa 0,0 l/m 3,2 km/h (1 Bft) N-NO 22 0 min 0,000 mm 0 W/m 16,3 C 23,3 C 8,0 km/h (2 Bft) 100,00 %
28.05.2017 22:00 23,1 C 23,1 C 23,3 C 66 % 0 cb 1017,2 hPa 0,0 l/m 3,2 km/h (1 Bft) N 360 0 min 0,025 mm 0 W/m 16,4 C 23,1 C 6,4 km/h (2 Bft) 100,00 %
28.05.2017 22:10 22,9 C 22,9 C 23,1 C 66 % 0 cb 1017,2 hPa 0,0 l/m 3,2 km/h (1 Bft) N-NO 22 0 min 0,000 mm 0 W/m 16,2 C 22,9 C 6,4 km/h (2 Bft) 100,00 %
28.05.2017 22:20 22,7 C 22,7 C 22,9 C 67 % 0 cb 1017,1 hPa 0,0 l/m 1,6 km/h (1 Bft) N-NO 22 0 min 0,000 mm 0 W/m 16,2 C 22,7 C 4,8 km/h (1 Bft) 100,00 %
28.05.2017 22:30 22,4 C 22,4 C 22,7 C 68 % 0 cb 1017,1 hPa 0,0 l/m 1,6 km/h (1 Bft) N-NO 22 0 min 0,000 mm 0 W/m 16,2 C 22,4 C 6,4 km/h (2 Bft) 100,00 %
28.05.2017 22:40 22,2 C 22,2 C 22,4 C 69 % 0 cb 1017,1 hPa 0,0 l/m 3,2 km/h (1 Bft) N-NO 22 0 min 0,000 mm 0 W/m 16,2 C 22,2 C 8,0 km/h (2 Bft) 100,00 %
28.05.2017 22:50 21,9 C 21,9 C 22,2 C 70 % 0 cb 1017,0 hPa 0,0 l/m 1,6 km/h (1 Bft) N 360 0 min 0,000 mm 0 W/m 16,2 C 21,9 C 4,8 km/h (1 Bft) 100,00 %
28.05.2017 23:00 21,6 C 21,6 C 21,9 C 71 % 0 cb 1017,0 hPa 0,0 l/m 0,0 km/h (0 Bft) N 360 0 min 0,025 mm 0 W/m 16,1 C 21,6 C 3,2 km/h (1 Bft) 100,00 %
28.05.2017 23:10 21,2 C 21,2 C 21,6 C 72 % 0 cb 1016,9 hPa 0,0 l/m 1,6 km/h (1 Bft) N 360 0 min 0,000 mm 0 W/m 15,9 C 21,2 C 4,8 km/h (1 Bft) 100,00 %
28.05.2017 23:20 20,9 C 20,9 C 21,2 C 74 % 0 cb 1016,8 hPa 0,0 l/m 1,6 km/h (1 Bft) N 360 0 min 0,000 mm 0 W/m 16,1 C 20,9 C 4,8 km/h (1 Bft) 100,00 %
28.05.2017 23:30 20,7 C 20,7 C 20,9 C 75 % 0 cb 1016,7 hPa 0,0 l/m 1,6 km/h (1 Bft) N 360 0 min 0,000 mm 0 W/m 16,1 C 20,7 C 3,2 km/h (1 Bft) 100,00 %
28.05.2017 23:40 20,4 C 20,4 C 20,7 C 75 % 0 cb 1016,7 hPa 0,0 l/m 1,6 km/h (1 Bft) N 360 0 min 0,000 mm 0 W/m 15,8 C 20,4 C 3,2 km/h (1 Bft) 100,00 %
28.05.2017 23:50 20,2 C 20,2 C 20,4 C 76 % 0 cb 1016,7 hPa 0,0 l/m 1,6 km/h (1 Bft) N 360 0 min 0,000 mm 0 W/m 15,8 C 20,2 C 4,8 km/h (1 Bft) 100,00 %
_ Min-Zeit 06:10 06:10 06:20 16:50 00:00 18:00 - 00:10 - - - - - 05:50 06:10 00:50 21:20
Minimum _ 14,8 C 14,8 C 14,8 C 37 % 0 cb 1016,2 hPa - 0,0 km/h (0 Bft) - - - - - 11,3 C 14,8 C 0,0 km/h (0 Bft) 83,77 %
_ Max-Zeit 16:50 17:00 16:50 06:30 00:00 01:10 00:00 18:20 - - 07:20 15:00 13:40 13:40 16:50 20:50 00:00
Maximum _ 32,2 C 31,9 C 32,2 C 81 % 0 cb 1018,9 hPa 0,0 l/m 6,4 km/h
S (2 Bft)
- - 10 min 0,584 mm 909 W/m 19,2 C 32,2 C 20,9 km/h
NW (4 Bft)
100,00 %
Durchschnitt _ 24,1 C 23,9 C 24,2 C 59 % 0 cb 1017,9 hPa #0,0 l/m 2,1 km/h (1 Bft) N-NO - #11:40 h #5,003 mm 457 W/m 15,2 C 24,1 C 6,5 km/h (2 Bft) 99,67 %
Wetterstation Gdesweiler